When you browse on this site, cookies collect data to enhance your experience and personalize the content and advertising you see.
Visit our Privacy Policy to learn more. By continuing to use the site, you agree to this use of cookies and data.
  • en Suisse
  • Liste des pays
  • À 7 jours
  • Température de l'eau
  • Carte météo
  • Widgets météo
  • user-avatar
    Se connecter

    Météo par heure à Kuzminki

    Ce jour, 26 Août, Lundi

    Heure Température Précipitation Vent Pression Humidité
    00:00 +12°C° 0 mm 3 m/s 754 mmHg 88%
    01:00 +13°C° 0 mm 2 m/s 755 mmHg 89%
    02:00 +12°C° 0 mm 2 m/s 755 mmHg 90%
    03:00 +12°C° 0 mm 1 m/s 755 mmHg 90%
    04:00 +12°C° 0 mm 1 m/s 755 mmHg 91%
    05:00 +11°C° 0 mm 1 m/s 755 mmHg 91%
    06:00 +11°C° 0 mm 1 m/s 755 mmHg 92%
    07:00 +13°C° 0 mm 1 m/s 755 mmHg 85%
    08:00 +14°C° 0 mm 1 m/s 755 mmHg 79%
    09:00 +16°C° 0 mm 1 m/s 756 mmHg 72%
    10:00 +18°C° 0 mm 1 m/s 755 mmHg 67%
    11:00 +17°C° 0 mm 0 m/s 755 mmHg 61%
    12:00 +19°C° 0 mm 0 m/s 755 mmHg 56%
    13:00 +21°C° 0 mm 1 m/s 755 mmHg 54%
    14:00 +22°C° 0 mm 1 m/s 754 mmHg 51%
    15:00 +22°C° 0 mm 1 m/s 754 mmHg 49%
    16:00 +22°C° 0 mm 1 m/s 754 mmHg 52%
    17:00 +22°C° 0 mm 1 m/s 753 mmHg 56%
    18:00 +22°C° 0 mm 1 m/s 753 mmHg 59%
    19:00 +20°C° 0 mm 1 m/s 752 mmHg 63%
    20:00 +19°C° 0 mm 1 m/s 752 mmHg 66%
    21:00 +16°C° 0 mm 1 m/s 752 mmHg 69%
    22:00 +16°C° 0 mm 2 m/s 752 mmHg 71%
    23:00 +16°C° 0 mm 2 m/s 751 mmHg 73%

    Demain, 27 Août, Mardi

    Heure Température Précipitation Vent Pression Humidité
    00:00 +16°C° 0 mm 3 m/s 751 mmHg 75%
    01:00 +14°C° 0 mm 3 m/s 751 mmHg 76%
    02:00 +14°C° 0 mm 3 m/s 750 mmHg 76%
    03:00 +14°C° 0 mm 3 m/s 750 mmHg 77%
    04:00 +14°C° 0 mm 4 m/s 750 mmHg 78%
    05:00 +14°C° 0 mm 4 m/s 749 mmHg 79%
    06:00 +15°C° 0 mm 4 m/s 749 mmHg 79%
    07:00 +16°C° 0 mm 5 m/s 748 mmHg 78%
    08:00 +17°C° 0 mm 5 m/s 748 mmHg 77%
    09:00 +19°C° 0 mm 5 m/s 748 mmHg 76%
    10:00 +20°C° 0.7 mm 6 m/s 748 mmHg 73%
    11:00 +21°C° 0.7 mm 6 m/s 748 mmHg 70%
    12:00 +22°C° 0.7 mm 7 m/s 747 mmHg 68%
    13:00 +22°C° 0.2 mm 6 m/s 747 mmHg 66%
    14:00 +22°C° 0.2 mm 6 m/s 747 mmHg 64%
    15:00 +22°C° 0.2 mm 6 m/s 747 mmHg 63%
    16:00 +21°C° 0 mm 5 m/s 747 mmHg 64%
    17:00 +21°C° 0 mm 4 m/s 747 mmHg 66%
    18:00 +20°C° 0 mm 4 m/s 747 mmHg 68%
    19:00 +19°C° 0 mm 4 m/s 747 mmHg 70%
    20:00 +18°C° 0 mm 4 m/s 748 mmHg 73%
    21:00 +15°C° 0 mm 4 m/s 748 mmHg 75%
    22:00 +14°C° 0 mm 3 m/s 748 mmHg 78%
    23:00 +14°C° 0 mm 3 m/s 749 mmHg 82%

    Après-demain, 28 Août, Mercredi

    Heure Température Précipitation Vent Pression Humidité
    00:00 +13°C° 0 mm 3 m/s 749 mmHg 85%
    01:00 +12°C° 0 mm 4 m/s 749 mmHg 84%
    02:00 +11°C° 0 mm 4 m/s 749 mmHg 84%
    03:00 +11°C° 0 mm 4 m/s 749 mmHg 84%
    04:00 +10°C° 0 mm 4 m/s 749 mmHg 85%
    05:00 +10°C° 0 mm 4 m/s 750 mmHg 86%
    06:00 +10°C° 0 mm 4 m/s 750 mmHg 87%
    07:00 +10°C° 0 mm 5 m/s 750 mmHg 82%
    08:00 +12°C° 0 mm 5 m/s 751 mmHg 77%
    09:00 +13°C° 0 mm 5 m/s 751 mmHg 72%
    10:00 +13°C° 0 mm 6 m/s 751 mmHg 66%
    11:00 +14°C° 0 mm 6 m/s 751 mmHg 60%
    12:00 +15°C° 0 mm 6 m/s 751 mmHg 54%
    13:00 +15°C° 0 mm 6 m/s 751 mmHg 52%
    14:00 +15°C° 0 mm 6 m/s 751 mmHg 50%
    15:00 +15°C° 0 mm 6 m/s 751 mmHg 48%
    16:00 +15°C° 0 mm 6 m/s 751 mmHg 51%
    17:00 +14°C° 0 mm 5 m/s 751 mmHg 54%
    18:00 +13°C° 0 mm 4 m/s 751 mmHg 57%
    19:00 +12°C° 0 mm 4 m/s 752 mmHg 61%
    20:00 +11°C° 0 mm 3 m/s 752 mmHg 65%
    21:00 +10°C° 0 mm 3 m/s 752 mmHg 69%
    22:00 +9°C° 0 mm 3 m/s 753 mmHg 71%
    23:00 +8°C° 0 mm 3 m/s 753 mmHg 74%

    29 Août, Jeudi

    Heure Température Précipitation Vent Pression Humidité
    00:00 +8°C° 0 mm 3 m/s 753 mmHg 77%
    01:00 +7°C° 0 mm 2 m/s 753 mmHg 78%
    02:00 +7°C° 0 mm 2 m/s 753 mmHg 80%
    03:00 +7°C° 0 mm 2 m/s 753 mmHg 81%
    04:00 +7°C° 0 mm 2 m/s 753 mmHg 80%
    05:00 +7°C° 0 mm 2 m/s 753 mmHg 80%
    06:00 +6°C° 0 mm 2 m/s 753 mmHg 80%
    07:00 +8°C° 0 mm 3 m/s 753 mmHg 74%
    08:00 +10°C° 0 mm 3 m/s 753 mmHg 68%
    09:00 +11°C° 0 mm 3 m/s 754 mmHg 62%
    10:00 +12°C° 0 mm 3 m/s 753 mmHg 59%
    11:00 +13°C° 0 mm 4 m/s 753 mmHg 57%
    12:00 +14°C° 0 mm 4 m/s 753 mmHg 54%
    13:00 +14°C° 0 mm 4 m/s 753 mmHg 56%
    14:00 +13°C° 0 mm 3 m/s 753 mmHg 58%
    15:00 +13°C° 0 mm 3 m/s 752 mmHg 60%
    16:00 +14°C° 0 mm 3 m/s 752 mmHg 63%
    17:00 +14°C° 0 mm 3 m/s 752 mmHg 66%
    18:00 +14°C° 0 mm 3 m/s 752 mmHg 69%
    19:00 +15°C° 0 mm 2 m/s 751 mmHg 73%
    20:00 +14°C° 0 mm 2 m/s 751 mmHg 77%
    21:00 +14°C° 0 mm 1 m/s 751 mmHg 81%
    22:00 +13°C° 0.1 mm 1 m/s 751 mmHg 85%
    23:00 +13°C° 0.1 mm 2 m/s 751 mmHg 89%

    30 Août, Vendredi

    Heure Température Précipitation Vent Pression Humidité
    00:00 +12°C° 0.1 mm 2 m/s 751 mmHg 93%
    01:00 +12°C° 0 mm 2 m/s 751 mmHg 93%
    02:00 +12°C° 0 mm 2 m/s 751 mmHg 93%
    03:00 +10°C° 0 mm 2 m/s 752 mmHg 93%
    04:00 +10°C° 0 mm 2 m/s 752 mmHg 92%
    05:00 +9°C° 0 mm 2 m/s 752 mmHg 92%
    06:00 +9°C° 0 mm 1 m/s 752 mmHg 92%
    07:00 +10°C° 0 mm 1 m/s 752 mmHg 85%
    08:00 +12°C° 0 mm 1 m/s 752 mmHg 77%
    09:00 +13°C° 0 mm 1 m/s 752 mmHg 70%
    10:00 +14°C° 0 mm 1 m/s 752 mmHg 65%
    11:00 +15°C° 0 mm 1 m/s 752 mmHg 60%
    12:00 +16°C° 0 mm 1 m/s 752 mmHg 54%
    13:00 +18°C° 0 mm 1 m/s 752 mmHg 53%
    14:00 +19°C° 0 mm 1 m/s 752 mmHg 51%
    15:00 +19°C° 0 mm 1 m/s 752 mmHg 49%
    16:00 +19°C° 0 mm 1 m/s 751 mmHg 54%
    17:00 +18°C° 0 mm 1 m/s 751 mmHg 59%
    18:00 +16°C° 0 mm 2 m/s 751 mmHg 64%
    19:00 +16°C° 0 mm 2 m/s 751 mmHg 63%
    20:00 +15°C° 0 mm 1 m/s 751 mmHg 62%
    21:00 +14°C° 0 mm 1 m/s 751 mmHg 62%
    22:00 +14°C° 0 mm 1 m/s 752 mmHg 62%
    23:00 +13°C° 0 mm 1 m/s 752 mmHg 62%

    31 Août, Samedi

    Heure Température Précipitation Vent Pression Humidité
    00:00 +12°C° 0 mm 1 m/s 752 mmHg 62%
    01:00 +12°C° 0 mm 1 m/s 752 mmHg 62%
    02:00 +12°C° 0 mm 1 m/s 752 mmHg 63%
    03:00 +11°C° 0 mm 1 m/s 752 mmHg 63%
    04:00 +11°C° 0 mm 1 m/s 752 mmHg 63%
    05:00 +11°C° 0 mm 1 m/s 752 mmHg 63%
    06:00 +11°C° 0 mm 1 m/s 752 mmHg 64%
    07:00 +13°C° 0 mm 1 m/s 752 mmHg 62%
    08:00 +14°C° 0 mm 1 m/s 752 mmHg 60%
    09:00 +15°C° 0 mm 1 m/s 752 mmHg 59%
    10:00 +16°C° 0 mm 1 m/s 752 mmHg 60%
    11:00 +18°C° 0 mm 1 m/s 752 mmHg 60%
    12:00 +19°C° 0 mm 1 m/s 752 mmHg 61%
    13:00 +20°C° 0.1 mm 1 m/s 752 mmHg 61%
    14:00 +21°C° 0.1 mm 1 m/s 751 mmHg 61%
    15:00 +21°C° 0.1 mm 1 m/s 751 mmHg 61%
    16:00 +21°C° 0.4 mm 1 m/s 751 mmHg 65%
    17:00 +21°C° 0.4 mm 1 m/s 751 mmHg 69%
    18:00 +20°C° 0.4 mm 1 m/s 750 mmHg 73%
    19:00 +19°C° 0.1 mm 1 m/s 750 mmHg 76%
    20:00 +18°C° 0.1 mm 1 m/s 750 mmHg 79%
    21:00 +16°C° 0.1 mm 1 m/s 750 mmHg 82%
    22:00 +16°C° 0.3 mm 1 m/s 750 mmHg 84%
    23:00 +16°C° 0.3 mm 1 m/s 750 mmHg 85%
    Voir plus